User: anonymous   Login
Location: Smithers
(54.7670°N, 127.1670°W)
Time: 03:20:30
(UTC-07:00)
Language:

ERBS - Orbit

View from above orbital plane
View from above orbital plane
View from above satellite
View from above satellite

Ground track
Ground track

The orbit data is extracted from the following two-line orbital elements,

1 15354U 84108B   16181.22612255  .00001797  00000-0  52218-4 0  9997
2 15354  57.0079 215.0657 0014824 134.1778 226.0497 15.40994616743744
Epoch (UTC): 29 June 2016 05:25:36
Eccentricity: 0.0014824
inclination: 57.0079°
perigee height: 433 km
apogee height: 453 km
right ascension of ascending node: 215.0657°
argument of perigee: 134.1778°
revolutions per day: 15.40994616
mean anomaly at epoch: 226.0497°
orbit number at epoch: 74374

The dashed part of the orbit path shows where the satellite is in the earth's shadow,  

DLR